Regional Weather Roundup
Issued by NWS

Home | Current Version | Previous Version | Graphics & Text | Print | Product List | Glossary On
Versions: 1 2 3 4 5 6 7 8 9 10 11 12 13 14 15 16 17 18 19 20 21 22 23 24 25 26 27 28 29 30 31 32 33 34 35 36 37 38 39 40 41 42 43 44 45 46 47 48 49 50
000
ASUS44 KMEG 280400
RWRTN
TENNESSEE HOURLY STATE WEATHER ROUNDUP
NATIONAL WEATHER SERVICE MEMPHIS TN
1100 PM CDT MON MAR 27 2017

TNZ002-004-019-021-049-052-054-088>092-280500-
WEST TENNESSEE

CITY           SKY/WX    TMP DP  RH WIND       PRES   REMARKS
MEMPHIS INTL   MOCLDY    66  59  78 NE8       29.89R
NWS MEMPHIS      N/A     64 N/A N/A MISG        N/A
JACKSON        FOG       57  57 100 CALM      29.90R VSB 1/2
DYERSBURG      FOG       56  55  97 CALM      29.90S VSB 1/2
PARIS          CLOUDY    48  48 100 CALM      29.89R VSB 0
$$

TNZ008-025-027-028-033-062-065-066-280500-
NORTH MIDDLE TENNESSEE

CITY           SKY/WX    TMP DP  RH WIND       PRES   REMARKS
NASHVILLE      PTCLDY    58  57  97 S6        29.85F FOG
CLARKSVILLE    FOG       56  54  93 W3        29.88R VSB 3/4
SMYRNA         RAIN      61  59  94 SE3       29.87S
CROSSVILLE     LGT RAIN  55  53  93 VRB5G18   29.92F
$$

TNZ061-075-076-078-094-096-097-280500-
SOUTH MIDDLE TENNESSEE

CITY           SKY/WX    TMP DP  RH WIND       PRES   REMARKS
TULLAHOMA      PTCLDY    57  55  94 S6        29.89S
WINCHESTER     MOCLDY    57  57 100 S10       29.89F
COLUMBIA       MOCLDY   N/A N/A N/A CALM      29.87S
SHELBYVILLE    CLEAR     59  59 100 S5        29.90R
$$

TNZ017-018-042-046-047-280500-
NORTHEAST TENNESSEE

CITY           SKY/WX    TMP DP  RH WIND       PRES   REMARKS
TRI CITIES     RAIN      59  56  89 W10       30.00R
$$

TNZ012-013-036-069-073-074-280500-
CENTRAL EAST TENNESSEE

CITY           SKY/WX    TMP DP  RH WIND       PRES   REMARKS
KNOXVILLE      CLOUDY    60  57  89 NW10      29.95R
OAK RIDGE      LGT RAIN  60  56  86 VRB5      29.97S
GATLINBURG     PTCLDY    57  55  94 CALM      29.93F
$$

TNZ083-085-099-280500-
SOUTHEAST TENNESSEE

CITY           SKY/WX    TMP DP  RH WIND       PRES   REMARKS
CHATTANOOGA    TSTM      60  59  96 SW7G24    30.00R VSB 1
$$

SKY/WX REPORTED AS FAIR MEANS FEW OR NO CLOUDS BELOW
12 THOUSAND FEET.





USA.gov is the U.S. government's official web portal to all federal, state and local government web resources and services.